Location: Ahstedt
(52.2048°N, 10.1060°E)
Time: 05:54:06
(UTC+00:00)

Cosmos 1709 Rocket - Pass Details

Date: 18 January 2026
Orbit: 948 x 1000 km, 82.9° (Epoch: 18 February)

Event Time Altitude Azimuth Distance (km) Brightness Sun altitude
Exits shadow 04:01:29 46° 355° (N) 1,271 4.5 -29.6°
Drops below altitude 10° 04:05:45 10° 8° (N) 2,705 6.4 -28.9°
Sets 04:08:17 0° 10° (N) 3,662 7.2 -28.5°
